Orbital Elements at Epoch 2459200.5 (2020-Dec-17.0) TDB
Reference: JPL 20 (heliocentric ecliptic J2000)
Element | Value | Uncertainty (1-sigma) | Units |
e | .03803129899337003 | 3.968e-08 | |
a | 2.96842525530165 | 2.4446e-08 | au |
q | 2.855532186877803 | 1.1124e-07 | au |
i | 13.52097791950687 | 5.9664e-06 | deg |
node | 52.72771743951102 | 1.8413e-05 | deg |
peri | 235.2064402950869 | 8.6237e-05 | deg |
M | 99.23764155914039 | 8.3292e-05 | deg |
tp | 2458685.554179712915 (2019-Jul-21.05417971) | 0.00043273 | TDB |
period | 1868.046160618132 5.11 | 2.3076e-05 6.318e-08 | d yr |
n | .1927147238593274 | 2.3806e-09 | deg/d |
Q | 3.081318323725498 | 2.5376e-08 | au |
|
| | Orbit Determination Parameters
Additional Information
|